Вернуться в каталог

STARLINK-32138

АктивенСвязьVLEO
NORAD 60255·PAYLOAD·🇺🇸 United States

Запущен Jul 27, 2024 с Cape Canaveral Space Force Station

Loading…

Ближайшие Пролёты (ближайшие 24 часа)

TLE

СвежийSource: CelesTrak SupGP

Эпоха: Sep 14, 2026, 20:46 UTC

1 60255C 24131A   26257.86576389  .00052676  00000+0  16940-2 0  2577
2 60255  53.1563 252.3912 0001290  99.3256 172.8891 15.31674588    18

Отслеживайте STARLINK-32138 в реальном времени с AllMySat

Download on the App Store